Midland International Airport
KMAF : now visible

Airfield :











YOU CAN JOIN US ON...

 
LOGIN :

Register | Disclaimer

   EN    FR    IT 

 









Legend :    VFR   Marginal VFR   IFR   Intensive IFR   Very Intensive IFR
Visi :
Ceiling :
>= 8 km
>= 3000ft
5 to 8 km
1000 to 3000 ft
1500m to 5 km
500 to 1000 ft
800 to 1500m
200 to 500 ft
< 800m
< 200 ft
Symbols :   Thunderstorms  Fog  Heavy snow  Heavy precipitations  Wind > 20 kt






- Airport Elevation : 2871 ft
- IATA code : MAF


KMAF - Midland International

CURRENT METAR :
  • 081753Z 10SM SCT085 29/03 A3001 RMK AO2 SLP120 T02890028 10306 20122 58005

EXPIRED METARs :
  • 081653Z 29012G17KT 10SM OVC085 29/03 A3003 RMK AO2 SLP124 T02890033
  • 081553Z 30010KT 10SM BKN085 27/04 A3003 RMK AO2 SLP128 T02670044

TAF KMAF
Valid from the 08 at 18:00 until the 09 at 18:00 UTC


081721Z 0818/0918 28014G20KT P6SM FEW080 SCT250
FM090100 28010KT P6SM BKN250



MET'MAP, your aeronautical weather chart ! - Copyright ORBIFLY December 2007 - Disclaimer

ORBIFLY MET'MAP TEAM :

Programming & Development : Alexandra Zaïnal
Concept & original design : Baudouin d'Aumeries
Assistance for programming : Marc-Olivier Méhu
Technical & hardware support : Manuel Goepfert

Contact : metmap@orbifly.com




SOURCES & CREDITS :

   NOAA       Earth
Advisory